Weather History for Lawrenceville, IL

Change the Weather History Date:

Monday, December 31, 2012

  Actual Average Record
Temperature  
Mean Temperature 29 °F 31 °F  
Max Temperature 35 °F 39 °F 63 °F (2006)
Min Temperature 22 °F 24 °F 3 °F (1998)
Degree Days  
Heating Degree Days 36 34  
Month to date heating degree days 775 941  
Since 1 July heating degree days 1822 1799  
Cooling Degree Days 0 0  
Month to date cooling degree days 1 0  
Year to date cooling degree days 1708 1387  
Moisture  
Dew Point 29 °F    
Average Humidity 84    
Maximum Humidity 92    
Minimum Humidity 75    
Precipitation  
Precipitation 0.28 in 0.10 in 0.92 in (1968)
Month to date precipitation 1.31 3.39  
Year to date precipitation 29.47 43.88  
Sea Level Pressure  
Sea Level Pressure 30.16 in    
Wind  
Wind Speed 7 mph (SSW)    
Max Wind Speed 16 mph    
Max Gust Speed 18 mph    
Visibility 2 miles    
Events Fog , Rain , Snow    
T = Trace of Precipitation, MM = Missing Value Source: NWS Daily Summary

Daily Weather History Graph

Daily Weather History Graph

Search for Another Location

Airport:

Trip Planner

Search our weather history database for the weather conditions in past years. The results will help you decide how hot, cold, wet, or windy it might be!

Date:

Astronomy

Dec. 31, 2012 Rise Set
Actual Time 7:08 AM CST 4:39 PM CST
Civil Twilight 6:38 AM CST 5:08 PM CST
Nautical Twilight 6:05 AM CST 5:42 PM CST
Astronomical Twilight 5:33 AM CST 6:14 PM CST
Moon 8:06 PM CST (12/31) 8:52 AM CST (12/31)
Length of Visible Light 10h 29m
Length of Day
9h 30m
Waning Gibbous, 90% of the Moon is Illuminated
Dec 31
Waning Gibbous
Jan 4
Last Quarter
Jan 11
New
Jan 18
First Quarter
Jan 26
Full

Hourly Weather History & Observations

Time (CST) Temp. Windchill Dew Point Humidity Pressure Visibility Wind Dir Wind Speed Gust Speed Precip Events Conditions
12:53 AM 24.1 °F 16.0 °F 19.9 °F 84% 30.29 in 5.0 mi South 6.9 mph - N/A   Clear
1:53 AM 25.0 °F 18.1 °F 21.0 °F 85% 30.27 in 5.0 mi South 5.8 mph - N/A   Clear
2:53 AM 27.0 °F 20.5 °F 23.0 °F 85% 30.30 in 5.0 mi South 5.8 mph - N/A   Clear
3:53 AM 28.0 °F 22.8 °F 24.1 °F 85% 30.27 in 5.0 mi South 4.6 mph - N/A   Clear
4:53 AM 28.9 °F 21.1 °F 25.0 °F 85% 30.27 in 5.0 mi South 8.1 mph - N/A   Mostly Cloudy
5:53 AM 32.0 °F 23.6 °F 26.1 °F 79% 30.26 in 6.0 mi SSW 10.4 mph - N/A   Haze
6:53 AM 33.1 °F 23.9 °F 26.1 °F 75% 30.24 in 6.0 mi SSW 12.7 mph - N/A   Haze
7:53 AM 33.1 °F 24.4 °F 26.1 °F 75% 30.24 in 5.0 mi SSW 11.5 mph - N/A   Haze
8:53 AM 34.0 °F 26.0 °F 27.0 °F 75% 30.23 in 5.0 mi SSW 10.4 mph - 0.01 in   Haze
9:53 AM 34.0 °F 26.6 °F 28.0 °F 79% 30.22 in 4.0 mi South 9.2 mph - 0.04 in Rain Light Rain
10:15 AM 33.8 °F 27.0 °F 28.4 °F 81% 30.21 in 2.5 mi SSW 8.1 mph - 0.03 in Rain Light Rain
10:32 AM 33.8 °F 29.6 °F 30.2 °F 87% 30.21 in 1.0 mi SSW 4.6 mph - 0.04 in Snow Light Snow
10:53 AM 33.1 °F 28.7 °F 30.9 °F 92% 30.21 in 1.8 mi SSE 4.6 mph - 0.06 in Snow Light Snow
10:57 AM 33.8 °F 29.6 °F 30.2 °F 87% 30.19 in 2.5 mi South 4.6 mph - 0.00 in Snow Light Snow
11:05 AM 33.8 °F 28.6 °F 30.2 °F 87% 30.19 in 4.0 mi South 5.8 mph - 0.01 in   Overcast
11:53 AM 35.1 °F 26.9 °F 30.0 °F 82% 30.19 in 6.0 mi SSW 11.5 mph - 0.04 in   Haze
12:53 PM 34.0 °F 25.5 °F 30.0 °F 85% 30.17 in 2.5 mi SSW 11.5 mph - 0.02 in Snow Light Snow
1:05 PM 33.8 °F 25.8 °F 30.2 °F 87% 30.14 in 2.0 mi South 10.4 mph - 0.01 in Snow Light Snow
1:14 PM 33.8 °F 26.4 °F 30.2 °F 87% 30.14 in 2.5 mi SSW 9.2 mph - 0.01 in Snow Light Snow
1:23 PM 33.8 °F 27.0 °F 30.2 °F 87% 30.13 in 3.0 mi SSW 8.1 mph - 0.01 in   Overcast
1:37 PM 33.8 °F 26.4 °F 30.2 °F 87% 30.14 in 2.5 mi SSW 9.2 mph - 0.01 in Snow Light Snow
1:53 PM 34.0 °F 27.2 °F 30.9 °F 89% 30.15 in 2.0 mi SSW 8.1 mph - 0.02 in Snow Light Snow
2:12 PM 33.8 °F 27.7 °F 30.2 °F 87% 30.14 in 3.0 mi SSW 6.9 mph - 0.00 in   Overcast
2:22 PM 33.8 °F 27.7 °F 30.2 °F 87% 30.13 in 2.5 mi SSW 6.9 mph - 0.00 in   Overcast
2:53 PM 34.0 °F 31.0 °F 32.0 °F 92% 30.14 in 2.5 mi SSW 3.5 mph - 0.01 in   Overcast
3:33 PM 33.8 °F 28.6 °F 30.2 °F 87% 30.14 in 3.0 mi SSW 5.8 mph - N/A   Overcast
3:42 PM 33.8 °F 29.6 °F 30.2 °F 87% 30.13 in 2.0 mi SSW 4.6 mph - 0.00 in Snow Light Snow
3:53 PM 34.0 °F 28.8 °F 30.9 °F 89% 30.14 in 2.0 mi SSW 5.8 mph - 0.01 in Snow Light Snow
4:14 PM 33.8 °F 28.6 °F 30.2 °F 87% 30.13 in 1.0 mi SSW 5.8 mph - 0.00 in Snow Light Snow
4:37 PM 33.8 °F 30.8 °F 30.2 °F 87% 30.13 in 1.5 mi SSW 3.5 mph - 0.01 in Snow Light Snow
4:50 PM 33.8 °F 29.6 °F 30.2 °F 87% 30.12 in 3.0 mi SSW 4.6 mph - 0.01 in   Overcast
4:53 PM 33.1 °F 28.7 °F 30.9 °F 92% 30.14 in 3.0 mi SSW 4.6 mph - 0.01 in   Overcast
5:07 PM 33.8 °F 30.8 °F 30.2 °F 87% 30.13 in 3.0 mi SSW 3.5 mph - N/A   Overcast
5:23 PM 33.8 °F 28.6 °F 30.2 °F 87% 30.13 in 2.5 mi SSW 5.8 mph - 0.00 in Snow Light Snow
5:50 PM 33.8 °F 27.7 °F 30.2 °F 87% 30.13 in 1.8 mi SSW 6.9 mph - 0.00 in Snow Light Snow
5:53 PM 33.1 °F 26.9 °F 30.9 °F 92% 30.15 in 1.8 mi SSW 6.9 mph - 0.00 in Snow Light Snow
6:02 PM 33.8 °F 28.6 °F 30.2 °F 87% 30.12 in 2.0 mi South 5.8 mph - 0.00 in Snow Light Snow
6:10 PM 33.8 °F 28.6 °F 30.2 °F 87% 30.12 in 1.5 mi South 5.8 mph - 0.00 in Snow Light Snow
6:41 PM 33.8 °F 27.7 °F 30.2 °F 87% 30.12 in 2.0 mi South 6.9 mph - 0.01 in Snow Light Snow
6:53 PM 33.1 °F 27.7 °F 30.9 °F 92% 30.14 in 1.8 mi South 5.8 mph - 0.01 in Snow Light Snow
7:17 PM 33.8 °F 28.6 °F 30.2 °F 87% 30.11 in 1.0 mi SSW 5.8 mph - 0.00 in Snow Light Snow
7:36 PM 33.8 °F 28.6 °F 30.2 °F 87% 30.11 in 0.8 mi SSW 5.8 mph - 0.00 in Snow Light Snow
7:53 PM 33.1 °F 26.9 °F 30.9 °F 92% 30.12 in 1.0 mi South 6.9 mph - 0.01 in Snow Light Snow
8:05 PM 33.8 °F 28.6 °F 30.2 °F 87% 30.11 in 1.0 mi SSW 5.8 mph - 0.00 in Snow Light Snow
8:50 PM 32.0 °F 28.7 °F 30.2 °F 93% 30.10 in 0.8 mi SSW 3.5 mph - 0.00 in Snow Light Snow
8:53 PM 32.0 °F 27.5 °F 30.9 °F 96% 30.11 in 0.5 mi SSW 4.6 mph - 0.00 in Fog , Snow Snow
9:10 PM 32.0 °F 27.5 °F 30.2 °F 93% 30.10 in 1.0 mi SSW 4.6 mph - 0.01 in Snow Light Snow
9:53 PM 33.1 °F - 30.9 °F 92% 30.10 in 0.8 mi Calm Calm - 0.02 in Snow Light Snow
10:02 PM 32.0 °F - 30.2 °F 93% 30.09 in 0.8 mi Calm Calm - 0.00 in Snow Light Snow
10:11 PM 33.8 °F - 30.2 °F 87% 30.09 in 0.8 mi Calm Calm - 0.00 in Snow Light Snow
10:41 PM 33.8 °F - 30.2 °F 87% 30.08 in 0.5 mi Calm Calm - 0.01 in Fog Fog
10:53 PM 33.1 °F - 30.9 °F 92% 30.09 in 0.5 mi Calm Calm - 0.01 in Fog Fog
11:05 PM 32.0 °F - 30.2 °F 93% 30.08 in 0.5 mi Calm Calm - N/A Fog Fog
11:53 PM 32.0 °F 28.7 °F 30.9 °F 96% 30.10 in 1.0 mi NW 3.5 mph - 0.01 in   Overcast